Zurück zum Katalog

YAOGAN-30 Z

AktivMilitärVLEO
NORAD 48425·PAYLOAD·🇨🇳 China

Gestartet May 6, 2021 von Xichang Satellite Launch Center

Loading…

Nächste Überflüge (nächste 24 Stunden)

TLE

AktuellSource: Space-Track

Epoche: Sep 14, 2026, 22:24 UTC

1 48425U 21039C   26257.93393999  .00002192  00000-0  16164-3 0  9999
2 48425  34.9945 203.5636 0001259 179.1768 180.8942 15.03031867293066

Verfolge YAOGAN-30 Z in Echtzeit mit AllMySat

Download on the App Store